www.pogodaiklimat.ru

ПОГОДА в Fada N`Gourma

  • Прогноз погоды в Fada N`Gourma
  • Монитор погоды в Fada N`Gourma
  • Климат города

АРХИВ ПОГОДЫ в Fada N`Gourma

Время (UTC), дата Ветер
(напр.,м/с)
 
Видим.   Явления Облачность Т
(С)
Тd
(С)
f
(%)
Тe
(С)
Тes
(С)
Комфортность P
(гПа)
Po
(гПа)
Тmin
(С)
Tmax
(С)
R
(мм)
S
(см)
18 8.01 С 2 10 км 9/0
[Ci sp]
+30.6 +7.1 23 +29 +29 жарко 1010.3 975.5 +34.6
00 9.01 С 2 18 км 9/0
[Ci sp]
+23.0 -0.1 22 +22 +22 комфорт 1012.0 977.5
03 9.01 С 2 10 км 9/0
[Ci sp]
+20.7 -0.3 24 +21 +21 комфорт 1010.9 976.5
06 9.01 СВ 2 10 км 9/0
[Ci sp]
+18.6 -1.5 26 +19 +19 1011.9 977.0 +18.6
09 9.01 СВ 2 10 км 9/0
[Ci sp]
+22.5 -2.1 19 +21 +27 комфорт 1013.2 978.2
12 9.01 СВ 5 10 км 9/0
[Ci sp]
+31.8 -5.4 9 +28 +34 жарко 1010.8 976.3
15 9.01 СВ 2 10 км 9/0
[Ci sp]
+34.2 -1.4 10 +30 +36 жарко 1007.9 973.6
18 9.01 В 2 10 км 9/0
[Ci sp]
+29.9 +2.0 17 +28 +28 жарко 1009.2 974.3 +34.7
00 10.01 С 2 10 км 9/0
[Ci sp]
+22.4 +0.5 23 +22 +22 комфорт 1010.9 976.4
03 10.01 С 2 10 км 9/0
[Ci sp]
+19.6 -0.3 26 +20 +20 1009.5 975.1
06 10.01 СВ 2 10 км 9/0
[Ci sp]
+17.3 +2.1 36 +18 +18 1010.2 975.3 +17.3
09 10.01 С 3 10 км 9/0
[Ci sp]
+25.6 -5.0 13 +23 +28 комфорт 1011.7 977.0
12 10.01 С 2 10 км 9/0
[Ci sp]
+31.7 -1.0 12 +28 +41 жарко 1009.5 975.0
15 10.01 СЗ 1 10 км 9/0
[Ci sp]
+33.4 -0.4 12 +30 +37 жарко 1006.7 972.2
18 10.01 СЗ 1 10 км 9/0
[Ci sp]
+28.9 +7.0 25 +28 +28 жарко 1007.6 972.7 +35.0
00 11.01 СЗ 2 10 км 9/0
[Ci sp]
+20.9 +1.2 27 +22 +22 комфорт 1008.9 974.4
03 11.01 С 2 10 км 9/0
[Ci sp]
+18.4 +3.9 38 +19 +19 1007.1 972.6
06 11.01 С 2 10 км 9/0
[Ci sp]
+16.9 +1.8 36 +17 +17 1008.4 973.5 +16.9
09 11.01 С 2 10 км 9/0
[Ac trans Ci sp]
+24.2 +0.1 20 +23 +26 комфорт 1010.2 975.3
12 11.01 С 2 10 км 9/0
[Ac trans Ci sp]
+30.9 -2.3 12 +28 +38 жарко 1009.2 974.6
15 11.01 СВ 1 10 км 9/0
[Ac trans Ci sp]
+32.4 -1.4 11 +29 +34 жарко 1007.8 973.2
18 11.01 СЗ 1 10 км 9/0
[Ac trans Ci sp]
+28.4 +1.3 17 +26 +26 жарко 1009.0 974.0 +33.1
00 12.01 В 2 10 км 9/0
[Ci sp]
+20.7 -1.9 22 +21 +21 комфорт 1010.3 975.7
03 12.01 СЗ 3 10 км 9/0
[Ci sp]
+20.9 -4.6 18 +21 +21 комфорт 1009.2 974.7
06 12.01 СЗ 2 10 км 9/0
[Ci sp]
+19.1 -7.8 15 +20 +20 1010.8 975.8 +19.1
09 12.01 С 3 10 км 9/0
[Ci sp]
+23.0 -9.2 11 +21 +26 комфорт 1013.1 978.0
12 12.01 С 1 10 км 9/0
[Ci sp]
+29.8 -6.4 9 +26 +42 жарко 1012.2 977.4
15 12.01 В 2 10 км 9/0
[Ac trans Ci sp]
+32.2 -6.4 8 +28 +34 жарко 1010.0 975.4
18 12.01 С 2 10 км 9/0
[Ac trans Ci sp]
+28.2 -0.8 15 +26 +26 жарко 1010.8 975.9 +33.4
00 13.01 С 3 10 км 9/0
[Ci sp]
+21.2 -5.3 16 +20 +20 1012.8 978.1
03 13.01 С 3 10 км 9/0
[Ci sp]
+19.4 -11.5 11 +19 +19 1011.6 976.9
06 13.01 СВ 3 10 км 9/0
[Ci sp]
+17.2 -8.7 16 +17 +17 1012.6 977.5 +17.2
09 13.01 С 5 10 км 9/0
[Ci sp]
+20.8 -8.8 13 +20 +23 1014.8 979.5
12 13.01 С 4 10 км 9/0
[Ci sp]
+27.4 -6.7 10 +24 +33 комфорт 1013.1 978.3
15 13.01 В 2 10 км 9/0
[Ci sp]
+28.3 -6.7 10 +25 +31 комфорт 1010.0 975.2
18 13.01 С 3 10 км 9/0
[Ci sp]
+26.0 -5.4 12 +23 +23 комфорт 1011.6 976.4 +29.2
00 14.01 С 3 10 км 9/0
[Ci sp]
+21.0 -1.3 22 +21 +21 комфорт 1012.4 977.5
03 14.01 В 3 10 км 9/0
[Cs]
+19.1 -3.8 21 +19 +19 1011.2 976.3
06 14.01 СВ 2 10 км 9/0
[Ci sp]
+17.4 -2.7 25 +18 +18 1011.8 976.7 +17.4
09 14.01 СВ 4 10 км 9/0
[Ci sp]
+21.6 -5.3 16 +20 +24 1013.4 978.2
12 14.01 СВ 3 10 км 9/0
[Ac trans Ci sp]
+27.0 -3.1 14 +24 +33 комфорт 1010.7 975.8
15 14.01 С 3 10 км 9/0
[Ci sp]
+28.2 -3.1 13 +25 +30 комфорт 1008.6 973.8
18 14.01 С 1 10 км 9/0
[Ci sp]
+25.5 +1.7 21 +24 +24 комфорт 1009.3 974.2 +29.1
00 15.01 штиль 0 10 км 9/0
[Ci sp]
+19.8 -0.6 25 +20 +20 1010.1 975.2
03 15.01 С 2 10 км 9/0
[Ci sp]
+18.0 0.0 30 +19 +19 1009.5 974.5
06 15.01 С 2 10 км 9/0
[Ci sp]
+16.9 -1.3 29 +17 +17 1009.9 974.7 +16.9
09 15.01 СВ 3 10 км 9/0
[Ci sp]
+23.3 -6.4 13 +21 +26 комфорт 1011.9 976.9
12 15.01 С 3 10 км 9/0
[Ci sp]
+29.8 -0.2 14 +27 +38 жарко 1010.1 975.4
15 15.01 СВ 1 10 км 9/0
[Ci sp]
+32.9 0.0 12 +30 +36 жарко 1007.5 972.9
18 15.01 СЗ 1 10 км 9/0
[Ci sp]
+29.0 +7.7 26 +28 +28 жарко 1008.5 973.6 +34.0
00 16.01 С 1 10 км 9/0
[Ci sp]
+22.0 +1.9 27 +22 +22 комфорт 1010.0 975.4
03 16.01 С 1 10 км 9/0
[Ci sp]
+21.0 -1.3 22 +22 +22 комфорт 1009.0 974.6
06 16.01 СЗ 1 10 км 9/0
[Ac trans Ci sp]
+18.9 +1.6 31 +20 +20 1009.8 975.0 +18.9
09 16.01 СВ 2 10 км 9/0
[Ci sp]
+25.0 -1.8 17 +23 +29 комфорт 1011.4 976.6
12 16.01 СВ 3 10 км 9/0
[Ci sp]
+32.3 +0.2 13 +29 +40 жарко 1009.5 975.1
15 16.01 СЗ 1 10 км 9/0
[Ci sp]
+34.5 -0.5 11 +31 +38 жарко 1006.7 972.4

 

Местоположение метеостанции Fada N`Gourma (Буркина-Фасо): широта 12.03 долгота 0.37 высота над уровнем моря 309 м.

В архиве по умолчанию представлена погода в Fada N`Gourma за последнюю неделю. Архивные данные за месяц целиком и за предыдущие месяцы, начиная с января 2011 года, Вы можете получить, выбрав интересующий диапазон дат из раскрывающегося списка и нажав кнопку "Ввод!".

Внимание! Время в таблицах - всемирное. Для получения местного времени необходимо прибавить поправку, которая в Fada N`Gourma равна 0 ч.

Ветер - указаны скорость ветра в м/с - средняя за 10 мин, порывы в срок и между сроками (в фигурных скобках) и направление, откуда дует ветер: С - северный, СВ - северо-восточный, В - восточный, ЮВ - юго-восточный, Ю - южный, ЮЗ - юго-западный, З - западный, СЗ - северо-западный.
Видимость - горизонтальная дальность видимости в метрах или километрах. При видимости от 1 до 10 км при отсутствии осадков обычно наблюдается дымка, при ухудшении видимости до 1 км и менее - туман. В сухую погоду видимость может ухудшаться дымом, пылью или мглою.
Явления - указаны атмосферные явления, наблюдавшиеся в срок или в последний час перед сроком; фигурными скобками обозначены явления, наблюдавшиеся между сроками (за 1-3 часа до срока); квадратными скобками обозначены град или гололедные отложения с указанием их диаметра в мм.
Облачность - указаны через наклонную черту общая и нижняя облачность в баллах и высота нижней границы облаков в метрах; квадратными скобками обозначены формы облаков: Ci - перистые, Cs - перисто-слоистые, Cc - перисто-кучевые, Ac - высококучевые, As - высокослоистые, Sc - слоисто-кучевые, Ns - слоисто-дождевые, Cu - кучевые, Cb - кучево-дождевые. Подробнее классификацию облаков см. в Атласе облаков (PDF).
T - Температура воздуха - температура, измеренная на высоте 2 м над землей.
Td - Температура точки росы - температура, при понижении до которой содержащийся в воздухе водяной пар достигнет насыщения.
f - Относительная влажность воздуха - влажноcть воздуха, измеренная на высоте 2 м над землей.
Te - Эффективная температура - температура, которую ощущает одетый по сезону человек в тени. Характеристика душности погоды. При расчете учитывается влияние влажности воздуха и скорости ветра на теплоощущения человека.
Tes - Эффективная температура на солнце - температура, которую ощущает человек, с поправкой на солнечный нагрев. Характеристика знойности погоды. Зависит от высоты солнца над горизонтом, облачности и скорости ветра. Ночью, в пасмурную погоду, а также при ветре 12 м/с и более поправка равна нулю.
P - Атмосферное давление - приведенное к уровню моря атмосферное давление.
Po - Атмосферное давление - измеренное на уровне метеостанции атмосферное давление.
Tmin - Минимальная температура - минимум температуры воздуха на высоте 2 м над землей.
Tmax - Максимальная температура - максимум температуры воздуха на высоте 2 м над землей.
R - Количество осадков - Количество выпавших осадков, мм. При наведении курсора мыши на число - период времени, за который выпало указанное количество осадков.
S - Снежный покров - Высота снежного покрова, см. При наведении курсора мыши на число - состояние снежного покрова и степень покрытия местности в баллах.